Location: Kapuskasing
(49.3803°N, 82.4001°W)
Time: 23:41:06
(UTC-04:00)

ISS - Visible Passes

Search period start: 25 September 2017 00:00
Search period end: 05 October 2017 00:00
Orbit: 401 x 407 km, 51.6° (Epoch: 26 September)

Date Brightness Start Highest point End Pass type
(mag) Time Alt. Az. Time Alt. Az. Time Alt. Az.
25 Sep -1.4 21:29:37 10° SW 21:30:17 15° SSW 21:30:17 15° SSW visible
26 Sep -2.6 20:37:47 10° SSW 20:40:28 24° SE 20:40:35 24° SE visible
27 Sep -1.9 19:46:22 10° S 19:48:20 15° SE 19:50:17 10° E visible
27 Sep -2.9 21:21:04 10° WSW 21:23:22 41° SW 21:23:22 41° SW visible
28 Sep -3.4 20:28:53 10° SW 20:32:01 43° SSE 20:33:20 27° E visible
28 Sep -1.0 22:05:11 10° W 22:05:59 16° W 22:05:59 16° W visible
29 Sep -3.7 21:12:44 10° WSW 21:15:48 74° WNW 21:15:48 74° WNW visible
30 Sep -3.9 20:20:20 10° WSW 20:23:36 76° SSE 20:25:32 23° ENE visible
30 Sep -1.2 21:56:58 10° W 21:58:11 20° WNW 21:58:11 20° WNW visible
01 Oct -3.6 21:04:27 10° W 21:07:42 60° N 21:07:50 60° N visible
02 Oct -3.7 20:11:57 10° W 20:15:14 73° NNW 20:17:26 19° ENE visible
02 Oct -1.3 21:48:40 10° WNW 21:50:04 23° WNW 21:50:04 23° WNW visible
03 Oct -3.5 20:56:09 10° W 20:59:24 55° N 20:59:37 53° NNE visible
04 Oct -3.4 20:03:37 10° W 20:06:52 58° N 20:09:09 18° ENE visible
04 Oct -1.5 21:40:16 10° WNW 21:41:47 25° WNW 21:41:47 25° WNW visible
